Regional Weather Roundup
Issued by NWS Wakefield, VA

Home | Current Version | Previous Version | Graphics & Text | Print | Product List | Glossary On
Versions: 1 2 3 4 5 6 7 8 9 10 11 12 13 14 15 16 17 18 19 20 21 22 23 24 25 26 27 28 29 30 31 32 33 34 35 36 37 38 39 40 41 42 43 44 45 46 47 48 49 50
783
ASUS41 KAKQ 211215
RWRAKQ

REGIONAL WEATHER ROUNDUP
NATIONAL WEATHER SERVICE WAKEFIELD VA
800 AM EDT THU SEP 21 2017

Note: "fair" indicates few or no clouds below 12,000 feet with no
significant weather and/or obstructions to visibility. * = Denotes
station may not report precipitation (e.g., rain,snow,etc.),
thunder or fog.

VAZ042-051-052>054-056-211300-
NORTHERN VIRGINIA

CITY           SKY/WX    TMP DP  RH WIND       PRES   REMARKS
WASH NATIONAL  MOSUNNY   71  63  75 N6        30.07R
DULLES         MOSUNNY   65  62  90 NW3       30.08R
FORT BELVOIR   SUNNY     69  61  75 CALM      30.06R
QUANTICO       MOSUNNY   68  64  87 NW3       30.07R
FREDERICKSBRG* SUNNY     63  63 100 CALM      30.06R
STAFFORD*      SUNNY     65  64  94 N6        30.10R
WARRENTON      SUNNY     61  58  91 CALM      30.07R
CULPEPER*      SUNNY     62  61  97 CALM      30.09R
MANASSAS*      SUNNY     60  58  92 CALM      30.08R
LEESBURG*      SUNNY     64  64 100 CALM      30.09R
WINCHESTER     SUNNY     57  57 100 CALM      30.10S
FRONT ROYAL*   SUNNY     59  59 100 CALM      30.10R
LURAY*         MOSUNNY   59  59 100 CALM      30.12R FOG
$$

VAZ048-049-060>072-079>083-211300-
CENTRAL AND SOUTH CENTRAL VIRGINIA

CITY           SKY/WX    TMP DP  RH WIND       PRES   REMARKS
RICHMOND       PTSUNNY   68  64  87 N6        30.05R
CHESTERFIELD*  NOT AVBL
PETERSBURG*    MOSUNNY   67  67 100 CALM      30.06R
HANOVER        MOSUNNY   65  63  93 MISG      30.06R
TAPPAHANNOCK*  MOSUNNY  N/A N/A N/A CALM      30.05R
QUINTON*       FAIR      65  65 100 CALM      30.04S
CHARLOTTSVILLE MOSUNNY   69  66  90 CALM      30.07R
GORDONSVILLE*  MOSUNNY   63  63 100 CALM      30.06S
ORANGE*        SUNNY     63  61  94 CALM      30.07S
LOUISA*        SUNNY     66  63  88 N3        30.07R
BUMPASS*       NOT AVBL
FARMVILLE*     MOSUNNY   68  68 100 CALM      30.06R
CREWE*         FAIR      66  66 100 CALM      30.05S
FORT PICKETT*  FAIR      69  69 100 NW6       30.06R
CHASE CITY*    FAIR      66  66 100 CALM      30.06R
CLARKSVILLE*   FAIR      64  64 100 CALM      30.05R
SOUTH HILL*    MOSUNNY   67  66  97 CALM      30.11R
LAWRENCEVILLE* PTSUNNY   66  65  96 CALM      30.05R
EMPORIA*       MOSUNNY   66  64  94 NW5       30.05R
$$

VAZ088>098-211300-
SOUTHEAST VIRGINIA

CITY           SKY/WX    TMP DP  RH WIND       PRES   REMARKS
NORFOLK        SUNNY     73  68  84 CALM      30.02R
VIRGINIA BEACH SUNNY     68  65  90 SW3       30.01R
NORFOLK NAVAL  MOSUNNY   73  67  81 NW3       30.03R
WEST POINT*    MOSUNNY   64  64 100 CALM      30.06R
SALUDA*        FAIR      70  67  89 NW7       30.03R
NEWPORT NEWS   MOSUNNY   68  66  93 CALM      30.03R
LANGLEY AFB    SUNNY     69  66  92 NW3       30.02R
FORT EUSTIS    SUNNY     71  65  83 CALM      30.01R
WILLIAMSBURG*  SUNNY     66  66 100 CALM      30.04R
HR EXEC AP*    FAIR      63  63 100 CALM      30.04R
FRANKLIN*      SUNNY     64  63  96 CALM      30.04R
US460-WAKEFLD  MOSUNNY   67  66  97 CALM      30.04R
$$

VAZ020-022-025-037-045-211300-
WEST CENTRAL AND SOUTHWEST VIRGINIA

CITY           SKY/WX    TMP DP  RH WIND       PRES   REMARKS
STAUNTON*      SUNNY     58  58 100 CALM      30.14R
WAYNESBORO*    CLOUDY    62  62 100 CALM      30.13R
HOT SPRINGS VA CLEAR     65  56  72 N6        30.23R
LYNCHBURG      SUNNY     68  63  84 N5        30.08R
DANVILLE       SUNNY     63  63 100 SW3       30.07R
SOUTH BOSTON*  FAIR      63  62  96 CALM      30.06R
MARTINSVILLE   PTCLDY    60  59  98 CALM      30.11R FOG
ROANOKE        CLEAR     66  64  93 CALM      30.12S
BLACKSBURG     CLEAR     61  61 100 CALM      30.18R FOG
DUBLIN*        CLEAR     61  60  98 CALM      30.17R FOG
MARION*        CLEAR     59  56  90 W3        30.21R
HILLSVILLE*    CLEAR     59  55  87 CALM      30.17R
RICHLANDS*     FAIR      60  59  96 SE3       30.19R
WISE*          CLEAR     63  63 100 CALM      30.20S
ABINGDON*      CLEAR     61  61 100 CALM      30.16S
$$

MDZ021>025-VAZ099-100-211300-
SOUTHERN MARYLAND AND THE DELMARVA PENINSULA

CITY           SKY/WX    TMP DP  RH WIND       PRES   REMARKS
PATUXENT RIVER MOSUNNY   70  67  90 NW5       30.04R
BAY BRIDGE APT SUNNY     70  66  88 N3        30.05R
LEONARDTOWN    SUNNY     66  63  88 CALM      30.06R
DOVER          MOSUNNY   70  68  94 NW6       30.02R
GEORGETOWN     SUNNY     69  65  86 NW3       30.03R
EASTON         MOSUNNY   68  64  88 CALM      30.08R
CAMBRIDGE      SUNNY     66  64  94 CALM      30.04R
SALISBURY      SUNNY     69  68  96 NW3       30.02S
OCEAN CITY     SUNNY    N/A N/A N/A NW6       30.02R
WALLOPS ISLAND SUNNY     70  68  93 NW5       30.03R
ACCOMACK*      SUNNY     69  68  99 N3        30.02R FOG
$$

NCZ012>017-030>032-211300-
NORTH CENTRAL AND EASTERN NORTH CAROLINA

CITY           SKY/WX    TMP DP  RH WIND       PRES   REMARKS
ROANOKE RAPIDS PTSUNNY   68  68 100 MISG      30.03S FOG
RALEIGH        MOSUNNY   68  66  93 CALM      30.06R
ELIZABETH CITY SUNNY     69  68  96 CALM      30.02R
AHOSKIE*         N/A     66  66 100 CALM      30.03R FOG
EDENTON*       SUNNY     68  66  92 CALM      30.03R
CURRITUCK*     SUNNY     67  65  91 CALM      30.02R
KILL DEVIL HLS SUNNY     72  72 100 CALM      30.00R FOG
MANTEO         SUNNY     69  68  97 CALM      30.02R
CAPE HATTERAS  SUNNY     77  75  93 CALM      30.01R FOG
TARBORO*       NOT AVBL
GOLDSBORO      SUNNY     68  68 100 CALM      30.02R
WASHINGTON     MOSUNNY   69  68  96 CALM      30.03R FOG
GREENVILLE     CLOUDY    68  68 100 CALM      30.04R FOG
NEW BERN       SUNNY     71  69  93 CALM      30.04R FOG
WILMINGTON     MOSUNNY   74  72  93 W5        30.04R
$$

VAZ048-211300-
ELSEWHERE

CITY           SKY/WX    TMP DP  RH WIND       PRES   REMARKS
HARRISBURG PA  PTSUNNY   68  64  87 NW7       30.07R
BALTIMORE      MOSUNNY   65  63  93 W3        30.06R
ANNAPOLIS      SUNNY     73  68  84 NW5       30.05R
ANDREWS AFB    SUNNY     68  61  79 N7        30.05R
PHILADELPHIA   PTSUNNY   73  62  68 N8        30.03S
HENDERSON NC   SUNNY     62  60  94 CALM      30.05S
GREENSBORO     PTCLDY    69  65  86 N5        30.07R
ROCKY MOUNT    SUNNY     68  68 100 CALM      30.04R
$$

VAZ100-211300-
MARINE

STATION/POSITION TIME  TEMP    WIND        PRES    WAVE   SWELL
                       AIR SEA DIR/SP/G            HT/PER HT/PER
                 (UTC) (F)     (DEG/KT/KT) (MB)    (FT/S) (FT/S)
BRANDYWINE LGT   1142   74     330/  7/ 11 1016.8R
CAPE MAY NJ      1136   75 73  350/  5/  9 1015.9R
LEWES DE         1142   74 73  330/  8/ 10 1016.2R
15NM E FENWICK I 1150   74 71  330/ 12/ 14 1016.1R   5/10   5/10
OCEAN-CITY-INLET 1142   72 73  340/  6/  8 1016.7R
WACHAPREAGUE VA  1142   72 74  340/  2/  3 1016.6R
THOMAS POINT MD  1200   72 75  360/  9/ 10   N/A
GOOSES REEF MD   1200   74 75  350/  8/ 10 1017.9    1
COVE POINT MD    1142   74      10/  7/ 10 1017.7R
SOLOMONS ISLAND  1142   70 76  320/  3/  5 1016.7R
BISHOPS HEAD MD  1142   72 76   10/  4/  6 1017.0R
PINEY POINT MD   1142          350/  6/  7   N/A
POTOMAC MD       1200   74 75   30/ 10/ 12 1016.2
CAMBRIDGE MD     1142   73 75              1017.8R
LEWISETTA VA     1142   73 76  350/  3/  4 1017.0R
RAPPAHANNOCK LGT 1142          350/ 11/ 12 1017.2R
STINGRAY PT      1200   73 75   20/ 10/ 12 1017.2
YORK RVR RNG VA  1142   72     340/  7/  8 1017.0R
YORKTOWN VA      1142   72 76  310/  7/ 10 1016.3R
JAMESTOWN VA     1200      77  340/  6/  6   N/A     0
DOMINION TERM VA 1142   74     340/  1/  8 1016.7R
KIPTOPEKE VA     1142      75  360/  5/  7   N/A
CHES BAY BRIDGE  1142   75 75  340/  9/ 10 1016.1R
CAPE HENRY VA    1142   74     320/  7/  7   N/A
WILLOUBY STN VA  1142   73     350/  7/  8 1016.5R
S CRANEY ISL VA  1142   72     290/  2/  5 1016.3R
CAPE HENRY BUOY  1200      74                N/A     4/ 9   2/11
1ST LANDING BUOY 1200   75 75              1016.2    2/ 5
64NM E OF VA BCH 1150   70 69  320/  6/  6 1016.1R   7/11   7/11
DUCK PIER NC     1142   73 75  310/  5/  8 1015.8R
44100 DUCK FRF   1135      74                N/A     5/11   3/11
44056 DUCK FRF   1130      75                N/A     4/ 9   2/11
OREGON INLET NC  1142   72 77  290/  3/  5 1015.9R
HATTERAS NC      1142   75 77  340/  3/  4 1015.9R
DIAMOND SHLS NC  1150   75 75  300/  4/  4 1015.7R   4/ 9   3/ 9
CAPE LOOKOUT NC  1200   77     300/  8/  9 1016.2R
$$




USA.gov is the U.S. government's official web portal to all federal, state and local government web resources and services.